Flag for Canada Weather past 2 weeks in Windsor, Ontario, Canada

Now
70 °F

Passing clouds.


Feels Like: 70 °F
Forecast: 66 / 81 °F
Wind: 6 mph from West

Location: Windsor Weather Station

Current Time: Aug 20, 2014 at 11:31:35 PM

Latest Report: Aug 20, 2014 at 11:00 PM


Visibility: 15 mi

Pressure: 29.94 "Hg

Humidity: 83%

Dew point: 64 °F

Location of WindsorLocation

Historic Weather in Windsor — Graph

°F

Windsor temperature yesterday

Maximum temperature yesterday: 82 °F (at 4:00 PM)
Minimum temperature yesterday: 63 °F (at 2:00 AM)
Average temperature yesterday: 71 °F

Past Weeks' High & Low Weather Summary

 TemperatureHumidityPressure
High82 °F (Aug 19, 4:00 PM)100% (Aug 6, 6:00 AM)30.16 "Hg (Aug 6, 6:00 AM)
Low50 °F (Aug 15, 5:00 AM)36% (Aug 15, 2:00 PM)29.67 "Hg (Aug 12, 3:00 PM)
Average68 °F76%29.96 "Hg
* Reported Aug 5 10:00 PM — Aug 20 10:00 PM, Windsor, Weather by CustomWeather, © 2014

Note: Actual official high and low records may vary slightly from our data, if they occured in-between our weather recording intervals... More about our weather records

Advertising

Windsor weather history for previous 24 hours

 ConditionsComfort  
Time TempWeatherWind HumidityBarometerVisibility
10:00 PM
Aug 20
72 °FPassing clouds.6 mph73%29.91 "Hg15 mi
9:00 PM75 °FPassing clouds.8 mph65%29.89 "Hg15 mi
8:00 PM79 °FPassing clouds.10 mph61%29.88 "Hg15 mi
7:00 PM81 °FPassing clouds.12 mph62%29.86 "Hg15 mi
6:00 PM82 °FPassing clouds.12 mph58%29.85 "Hg15 mi
5:00 PM82 °FScattered clouds.14 mph62%29.86 "Hg12 mi
4:00 PM77 °FSprinkles. Partly sunny.8 mph74%29.86 "Hg12 mi
3:00 PM79 °FBroken clouds.14 mph70%29.87 "Hg15 mi
2:00 PM79 °FPassing clouds.12 mph79%29.85 "Hg12 mi
1:00 PM75 °FPartly sunny.12 mph83%29.86 "Hg8 mi
12:50 PMN/APartly sunny.9 mphN/AN/A7 mi
12:00 PM73 °FFog.6 mph89%29.85 "Hg5 mi
11:00 AM72 °FFog.6 mph88%29.85 "Hg5 mi
10:00 AM70 °FSprinkles. Partly sunny.3 mph94%29.84 "Hg4 mi
9:00 AM70 °FFog.7 mph94%29.84 "Hg5 mi
8:53 AMN/AFog.26 mphN/AN/A4 mi
8:00 AM68 °FFog.6 mph100%29.82 "Hg5 mi
7:00 AM66 °FFog.3 mph100%29.80 "Hg5 mi
6:00 AM66 °FPassing clouds.6 mph100%29.79 "Hg12 mi
5:00 AM68 °FMostly cloudy.8 mph94%29.78 "Hg15 mi
4:00 AM68 °FPassing clouds.3 mph94%29.78 "Hg15 mi
3:00 AM68 °FPassing clouds.7 mph100%29.77 "Hg15 mi
2:48 AMN/APassing clouds.7 mphN/AN/A15 mi
2:00 AM68 °FPassing clouds.8 mph94%29.79 "Hg15 mi
1:00 AM66 °FPassing clouds.5 mph100%29.79 "Hg15 mi
12:00 AM66 °FPartly cloudy.No wind100%29.80 "Hg15 mi
11:00 PM
Aug 19
66 °FPassing clouds.9 mph94%29.78 "Hg15 mi
Weather by CustomWeather, © 2014

See weather overviewHow to use our weather pages